[TLELIST] Archives

 

[list_settings.list_name] Current TLEs

July 12th 2021 PDT

HST 1 20580U 90037B 21192.65295079 .00000499 00000-0 19213-4 0 9994 2 20580 28.4696 264.9572 0002568 329.0107 160.5105 15.09679878514671 ISS (ZARYA) 1 25544U 98067A 21193.40195846 .00001502 00000-0 35645-4 0 9998 2 25544 51.6430 218.0339 0002047 154.2065 337.6995 15.48791682292504 CXO 1 25867U 99040B 21194.55554561 .00000538 00000-0 00000-0 0 9999 2 25867 54.4884 254.2154 8366840 226.6199 0.1510 0.37809836 10547 ____________________________________________________________________ These 2-Line ...Continue Reading

[list_settings.list_name] Current TLEs

July 11th 2021 PDT

HST 1 20580U 90037B 21191.93192222 .00000518 00000-0 20327-4 0 9990 2 20580 28.4697 269.7282 0002547 320.8767 202.1962 15.09679481514563 ISS (ZARYA) 1 25544U 98067A 21192.41274810 .00001812 00000-0 41306-4 0 9992 2 25544 51.6431 222.9262 0002037 152.4720 220.3125 15.48788953292354 CXO 1 25867U 99040B 21194.55511614 .00000538 00000-0 00000+0 0 9990 2 25867 54.4884 254.2154 8366841 226.6199 0.0925 0.37809768 21677 ____________________________________________________________________ These 2-Line ...Continue Reading

[list_settings.list_name] Current TLEs

July 10th 2021 PDT

HST 1 20580U 90037B 21190.94032112 .00000534 00000-0 21297-4 0 9996 2 20580 28.4699 276.2897 0002519 309.6341 213.5557 15.09678789514669 ISS (ZARYA) 1 25544U 98067A 21191.41275463 .00001853 00000-0 42068-4 0 9997 2 25544 51.6431 227.8715 0002029 149.0292 44.4819 15.48784821292195 CXO 1 25867U 99040B 21191.91017494 .00000476 00000-0 00000-0 0 9996 2 25867 54.5545 254.3352 8363240 226.5804 0.1053 0.37804966 10536 ____________________________________________________________________ These 2-Line ...Continue Reading

[list_settings.list_name] Current TLEs

July 9th 2021 PDT

HST 1 20580U 90037B 21189.67577147 .00000578 00000-0 23969-4 0 9992 2 20580 28.4700 284.6572 0002483 295.0098 181.9266 15.09678006514221 ISS (ZARYA) 1 25544U 98067A 21190.23720981 .00001003 00000-0 26543-4 0 9993 2 25544 51.6434 233.6881 0002181 142.5095 332.2890 15.48779351292015 CXO 1 25867U 99040B 21191.91017494 .00000476 00000-0 00000-0 0 9996 2 25867 54.5545 254.3352 8363240 226.5804 0.1053 0.37804966 10536 ____________________________________________________________________ These 2-Line ...Continue Reading

[list_settings.list_name] Current TLEs

July 8th 2021 PDT

HST 1 20580U 90037B 21188.75318098 .00000571 00000-0 23533-4 0 9998 2 20580 28.4702 290.7618 0002469 284.1689 208.6951 15.09677176514080 ISS (ZARYA) 1 25544U 98067A 21189.39410586 -.00000461 00000-0 -25031-6 0 9997 2 25544 51.6439 237.8582 0001934 140.4626 310.4147 15.48770635291889 CXO 1 25867U 99040B 21189.26506779 .00000367 00000-0 00000-0 0 9999 2 25867 54.6122 254.4422 8359526 226.5475 0.0721 0.37803988 10515 ____________________________________________________________________ These 2-Line ...Continue Reading

[list_settings.list_name] Current TLEs

July 7th 2021 PDT

HST 1 20580U 90037B 21187.48951663 .00000603 00000-0 25516-4 0 9997 2 20580 28.4703 299.1231 0002466 269.1822 182.2572 15.09676199513892 ISS (ZARYA) 1 25544U 98067A 21188.49882906 .00000183 00000-0 11533-4 0 9995 2 25544 51.6435 242.2792 0001983 141.7017 354.1996 15.48768048291747 CXO 1 25867U 99040B 21189.26506779 .00000367 00000-0 00000-0 0 9999 2 25867 54.6122 254.4422 8359526 226.5475 0.0721 0.37803988 10515 ____________________________________________________________________ These 2-Line ...Continue Reading

[list_settings.list_name] Current TLEs

July 6th 2021 PDT

HST 1 20580U 90037B 21186.76892718 .00000628 00000-0 27022-4 0 9993 2 20580 28.4705 303.8913 0002464 260.9561 226.4354 15.09675665513785 ISS (ZARYA) 1 25544U 98067A 21187.46697458 .00000431 00000-0 16068-4 0 9991 2 25544 51.6441 247.3821 0002094 139.8380 359.0994 15.48767607291582 CXO 1 25867U 99040B 21189.26506779 .00000367 00000-0 00000-0 0 9999 2 25867 54.6122 254.4422 8359526 226.5475 0.0721 0.37803988 10515 ____________________________________________________________________ These 2-Line ...Continue Reading

[list_settings.list_name] Current TLEs

July 5th 2021 PDT

HST 1 20580U 90037B 21185.77664274 .00000650 00000-0 28363-4 0 9991 2 20580 28.4706 310.4569 0002474 249.2707 234.5314 15.09674844513638 ISS (ZARYA) 1 25544U 98067A 21185.13411483 .00001998 00000-0 44753-4 0 9996 2 25544 51.6448 258.9183 0002195 136.4552 306.9141 15.48767231291223 CXO 1 25867U 99040B 21186.62029596 .00000274 00000-0 00000+0 0 9999 2 25867 54.6745 254.5493 8354973 226.5171 0.0709 0.37803695 21646 ____________________________________________________________________ These 2-Line ...Continue Reading

[list_settings.list_name] Current TLEs

July 4th 2021 PDT

HST 1 20580U 90037B 21185.05685656 .00000643 00000-0 27893-4 0 9998 2 20580 28.4706 315.2195 0002482 240.9837 283.1493 15.09674153513773 ISS (ZARYA) 1 25544U 98067A 21185.13411483 .00001998 00000-0 44753-4 0 9996 2 25544 51.6448 258.9183 0002195 136.4552 306.9141 15.48767231291223 CXO 1 25867U 99040B 21186.62029596 .00000274 00000-0 00000+0 0 9999 2 25867 54.6745 254.5493 8354973 226.5171 0.0709 0.37803695 21646 ____________________________________________________________________ These 2-Line ...Continue Reading

[list_settings.list_name] Current TLEs

July 3rd 2021 PDT

HST 1 20580U 90037B 21183.79171896 .00000648 00000-0 28210-4 0 9992 2 20580 28.4707 323.5906 0002508 226.1931 248.5073 15.09673007513334 ISS (ZARYA) 1 25544U 98067A 21184.03272880 .00001558 00000-0 36710-4 0 9996 2 25544 51.6448 264.3645 0002217 132.8621 285.6147 15.48759981291052 CXO 1 25867U 99040B 21183.97601741 .00000240 00000-0 00000+0 0 9995 2 25867 54.7291 254.6440 8349010 226.5018 0.1188 0.37802787 21634 ____________________________________________________________________ These 2-Line ...Continue Reading
  • This mailing list is a public mailing list - anyone may join or leave, at any time.
  • This mailing list is announce-only.

International Space Station (ISS) / Hubble Space Telescope (HST) / Chandra X-Ray Observatory Orbital Data via EMAIL

Privacy Policy:

Private list